| time (UTC) | temp C | wind direction | speed KPH | gust KPH | rain 1hr cm | rain 24hr cm | rain mn cm | humidity % | barometer mb |
| 20260504223100 | 25 | 153 | 11.3 | 37.0 | 0.00 | 0.00 | 0.00 | 71 | 1010.5 |
| 20260504221538 | 25 | 110 | 8.0 | 20.9 | 0.00 | 0.00 | 0.00 | 69 | 1010.7 |
| 20260504220106 | 25 | 197 | 12.9 | 25.7 | 0.00 | 0.00 | 0.00 | 68 | 1010.8 |
| 20260504214533 | 26 | 172 | 8.0 | 22.5 | 0.00 | 0.00 | 0.00 | 67 | 1010.8 |
| 20260504213005 | 26 | 148 | 9.7 | 20.9 | 0.00 | 0.00 | 0.00 | 65 | 1011.0 |
| 20260504211549 | 26 | 127 | 6.4 | 19.3 | 0.00 | 0.00 | 0.00 | 64 | 1011.3 |
| 20260504210020 | 26 | 159 | 9.7 | 19.3 | 0.00 | 0.00 | 0.00 | 63 | 1011.3 |
| 20260504204600 | 26 | 193 | 8.0 | 24.1 | 0.00 | 0.00 | 0.00 | 62 | 1011.5 |
| 20260504203035 | 26 | 160 | 8.0 | 29.0 | 0.00 | 0.00 | 0.00 | 62 | 1011.8 |
| 20260504201603 | 26 | 176 | 9.7 | 24.1 | 0.00 | 0.00 | 0.00 | 62 | 1012.0 |
| 20260504200033 | 26 | 127 | 6.4 | 17.7 | 0.00 | 0.00 | 0.00 | 62 | 1012.3 |
| 20260504194506 | 27 | 162 | 6.4 | 17.7 | 0.00 | 0.00 | 0.00 | 60 | 1012.4 |
| 20260504193048 | 26 | 123 | 8.0 | 19.3 | 0.00 | 0.00 | 0.00 | 60 | 1012.6 |
| 20260504191535 | 26 | 127 | 8.0 | 29.0 | 0.00 | 0.00 | 0.00 | 61 | 1012.8 |
| 20260504190106 | 26 | 253 | 8.0 | 24.1 | 0.00 | 0.00 | 0.00 | 61 | 1012.9 |
| 20260504184541 | 26 | 207 | 8.0 | 22.5 | 0.00 | 0.00 | 0.00 | 60 | 1013.1 |
| 20260504183011 | 26 | 137 | 9.7 | 32.2 | 0.00 | 0.00 | 0.00 | 61 | 1012.9 |
| 20260504181556 | 26 | 175 | 12.9 | 24.1 | 0.00 | 0.00 | 0.00 | 61 | 1013.3 |
| 20260504180021 | 26 | 199 | 11.3 | 25.7 | 0.00 | 0.00 | 0.00 | 60 | 1013.7 |
| 20260504174558 | 25 | 148 | 12.9 | 22.5 | 0.00 | 0.00 | 0.00 | 61 | 1013.9 |
| 20260504173033 | 25 | 159 | 9.7 | 20.9 | 0.00 | 0.00 | 0.00 | 62 | 1014.0 |
| 20260504171502 | 25 | 197 | 9.7 | 20.9 | 0.00 | 0.00 | 0.00 | 63 | 1014.3 |
| 20260504100122 | 18 | 146 | 3.2 | 11.3 | 0.00 | 0.00 | 0.00 | 68 | 1015.0 |
| 20260504081516 | 18 | 193 | 3.2 | 11.3 | 0.00 | 0.00 | 0.00 | 69 | 1015.7 |
| 20260504080114 | 18 | 198 | 1.6 | 8.0 | 0.00 | 0.00 | 0.00 | 69 | 1016.0 |
| 20260504050107 | 20 | 143 | 1.6 | 9.7 | 0.00 | 0.00 | 0.00 | 61 | 1017.6 |
| 20260504044546 | 19 | 172 | 0.0 | 0.0 | 0.00 | 0.00 | 0.00 | 62 | 1017.7 |
| 20260504043010 | 20 | 200 | 1.6 | 6.4 | 0.00 | 0.00 | 0.00 | 61 | 1017.7 |
| 20260504041552 | 20 | 212 | 1.6 | 9.7 | 0.00 | 0.00 | 0.00 | 60 | 1017.8 |
| 20260504040036 | 20 | 155 | 3.2 | 8.0 | 0.00 | 0.00 | 0.00 | 59 | 1017.8 |
| 20260504034600 | 20 | 139 | 1.6 | 14.5 | 0.00 | 0.00 | 0.00 | 59 | 1017.9 |
| 20260504033038 | 21 | 124 | 8.0 | 16.1 | 0.00 | 0.00 | 0.00 | 58 | 1017.8 |
| 20260504031513 | 21 | 162 | 4.8 | 16.1 | 0.00 | 0.00 | 0.00 | 59 | 1017.7 |
| 20260504030054 | 21 | 155 | 6.4 | 16.1 | 0.00 | 0.00 | 0.00 | 58 | 1017.5 |
| 20260504024527 | 21 | 117 | 9.7 | 20.9 | 0.00 | 0.00 | 0.00 | 58 | 1017.5 |
| 20260504023110 | 21 | 141 | 8.0 | 22.5 | 0.00 | 0.00 | 0.00 | 58 | 1017.7 |
| 20260504021540 | 21 | 153 | 8.0 | 19.3 | 0.00 | 0.00 | 0.00 | 58 | 1017.5 |
| 20260504020010 | 21 | 163 | 12.9 | 20.9 | 0.00 | 0.00 | 0.00 | 57 | 1017.5 |
| 20260504014607 | 21 | 150 | 8.0 | 17.7 | 0.00 | 0.00 | 0.00 | 56 | 1017.5 |
| 20260504013027 | 22 | 109 | 9.7 | 24.1 | 0.00 | 0.00 | 0.00 | 55 | 1017.3 |
| 20260504011609 | 22 | 144 | 8.0 | 19.3 | 0.00 | 0.00 | 0.00 | 53 | 1017.2 |
| 20260504010051 | 22 | 155 | 11.3 | 22.5 | 0.00 | 0.00 | 0.00 | 52 | 1017.1 |
| 20260504004514 | 22 | 175 | 8.0 | 17.7 | 0.00 | 0.00 | 0.00 | 52 | 1017.2 |
| 20260504003102 | 23 | 216 | 8.0 | 19.3 | 0.00 | 0.00 | 0.00 | 51 | 1017.1 |
| 20260504001531 | 23 | 129 | 8.0 | 19.3 | 0.00 | 0.00 | 0.00 | 50 | 1017.1 |
| 20260504000001 | 23 | 150 | 8.0 | 19.3 | 0.00 | 0.00 | 0.00 | 49 | 1017.3 |
| 20260503234540 | 24 | 184 | 11.3 | 20.9 | 0.00 | 0.00 | 0.00 | 47 | 1017.2 |
| 20260503233012 | 24 | 180 | 8.0 | 19.3 | 0.00 | 0.00 | 0.00 | 46 | 1017.4 |
| 20260503231553 | 25 | 152 | 8.0 | 16.1 | 0.00 | 0.00 | 0.00 | 43 | 1017.3 |
| 20260503230025 | 25 | 109 | 6.4 | 12.9 | 0.00 | 0.00 | 0.00 | 41 | 1017.4 |
| 20260503224609 | 25 | 152 | 6.4 | 11.3 | 0.00 | 0.00 | 0.00 | 41 | 1017.5 |